EW9931 Weather Reports


time (UTC)temp
F
wind
direction
speed
knots
gust
knots
rain 1hr
in
rain 24hr
in
rain mn
in
humidity
%
barometer
mb
20260509164510 66 121 0.9 0.0 0.00 0.00 0.00 11 1005.1
20260509163007 66 165 0.0 0.0 0.00 0.00 0.00 12 1005.0
20260509161504 65 219 0.9 0.0 0.00 0.00 0.00 12 1005.4
20260509160100 64 185 0.0 0.0 0.00 0.00 0.00 13 1005.0
20260509154557 62 179 0.0 0.0 0.00 0.00 0.00 13 1005.4
20260509153054 61 141 0.0 0.0 0.00 0.00 0.00 15 1005.8
20260509151552 59 213 0.0 0.0 0.00 0.00 0.00 18 1006.4
20260509150045 56 213 0.0 0.0 0.00 0.00 0.00 21 1006.2
20260509144547 52 213 0.0 0.0 0.00 0.00 0.00 24 1006.7
20260509143037 49 213 0.0 0.0 0.00 0.00 0.00 27 1007.5
20260509141537 47 213 0.0 0.0 0.00 0.00 0.00 30 1007.3
20260509140036 47 213 0.0 0.0 0.00 0.00 0.00 29 1006.8
20260509134538 46 213 0.0 0.0 0.00 0.00 0.00 28 1006.8
20260509133034 46 213 0.0 0.0 0.00 0.00 0.00 25 1006.8
20260509131548 45 213 0.0 0.0 0.00 0.00 0.00 24 1006.7
20260509130042 45 213 0.0 0.0 0.00 0.00 0.00 23 1005.7
20260509124531 45 213 0.0 0.0 0.00 0.00 0.00 23 1005.6
20260509123029 45 213 0.0 0.0 0.00 0.00 0.00 22 1005.6
20260509121524 45 213 0.0 0.0 0.00 0.00 0.00 21 1005.6
20260509120023 45 213 0.0 0.0 0.00 0.00 0.00 20 1005.6
20260509114522 45 213 0.0 0.0 0.00 0.00 0.00 20 1005.2
20260509113021 45 213 0.0 0.0 0.00 0.00 0.00 20 1005.3
20260509111520 45 213 0.0 0.0 0.00 0.00 0.00 20 1005.4
20260509110024 45 213 0.0 0.0 0.00 0.00 0.00 19 1004.8
20260509104518 45 213 0.0 0.0 0.00 0.00 0.00 19 1004.9
20260509103020 45 213 0.0 0.0 0.00 0.00 0.00 18 1005.0
20260509101521 46 213 0.0 0.0 0.00 0.00 0.00 18 1005.0
20260509100018 46 213 0.0 0.0 0.00 0.00 0.00 18 1004.4
20260509094515 46 213 0.0 0.0 0.00 0.00 0.00 17 1004.6
20260509093019 46 213 0.0 0.0 0.00 0.00 0.00 15 1004.6
20260509091511 46 213 0.0 0.0 0.00 0.00 0.00 15 1004.9
20260509090009 46 213 0.0 0.0 0.00 0.00 0.00 16 1004.9
20260509084512 47 213 0.0 0.0 0.00 0.00 0.00 16 1005.1
20260509083007 47 213 0.0 0.0 0.00 0.00 0.00 15 1005.2
20260509081508 47 213 0.0 0.0 0.00 0.00 0.00 15 1005.2
20260509080004 47 213 0.0 0.0 0.00 0.00 0.00 15 1004.9
20260509074503 48 213 0.0 0.0 0.00 0.00 0.00 16 1004.9
20260509073004 48 213 0.0 0.0 0.00 0.00 0.00 16 1005.0
20260509071504 48 213 0.0 0.0 0.00 0.00 0.00 16 1005.1
20260509070001 49 213 0.0 0.0 0.00 0.00 0.00 15 1005.7
20260509064501 49 213 0.0 0.0 0.00 0.00 0.00 14 1005.4
20260509063001 49 213 0.0 0.0 0.00 0.00 0.00 15 1005.3
20260509061619 50 213 0.0 0.0 0.00 0.00 0.00 18 1005.4
20260509054616 50 213 0.0 0.0 0.00 0.00 0.00 15 1005.8
20260509053144 51 213 0.0 0.0 0.00 0.00 0.00 18 1005.9
20260509051558 51 213 0.0 0.0 0.00 0.00 0.00 19 1005.9
20260509050059 52 213 0.0 0.0 0.00 0.00 0.00 24 1006.2
20260509044557 52 213 0.0 0.0 0.00 0.00 0.00 26 1006.1
20260509043058 53 213 0.0 0.0 0.00 0.00 0.00 27 1006.0
20260509041556 53 213 0.0 0.0 0.00 0.00 0.00 29 1005.5
20260509040112 54 213 0.0 0.0 0.00 0.00 0.00 30 1006.0
20260509034622 55 213 0.0 0.0 0.00 0.00 0.00 34 1006.0
20260509033055 56 213 0.0 0.0 0.00 0.00 0.00 37 1005.2
20260509031554 57 213 0.0 0.0 0.00 0.00 0.00 37 1004.7
20260509030105 58 213 0.0 0.0 0.00 0.00 0.00 37 1006.8
20260509024554 58 213 0.0 0.0 0.00 0.00 0.00 36 1006.3
20260509023053 60 213 0.0 0.0 0.00 0.00 0.00 33 1005.8
20260509021552 61 213 0.0 0.0 0.00 0.00 0.00 30 1005.6
20260509020051 62 213 0.0 0.0 0.00 0.00 0.00 28 1007.0
20260509014551 62 213 0.0 0.0 0.00 0.00 0.00 29 1006.4
20260509013107 63 213 0.0 0.0 0.00 0.00 0.00 28 1006.5
20260509011559 64 213 0.0 0.0 0.00 0.00 0.00 27 1006.2
20260509010049 67 210 0.9 0.0 0.00 0.00 0.00 24 1005.9
20260509004548 69 140 0.9 0.0 0.00 0.00 0.00 22 1005.8
20260509003108 68 196 0.9 0.0 0.00 0.00 0.00 23 1006.0
20260509001547 67 219 0.9 0.0 0.00 0.00 0.00 23 1006.6
20260509000101 67 198 0.9 0.0 0.00 0.00 0.00 23 1006.0
20260508234546 68 195 0.9 0.0 0.00 0.00 0.00 27 1005.9
20260508233047 69 143 0.9 0.0 0.00 0.00 0.00 27 1006.0
20260508231548 70 232 0.9 0.0 0.00 0.00 0.00 26 1005.6
20260508230043 70 133 0.9 0.0 0.00 0.00 0.00 24 1005.9
20260508224544 69 137 1.7 0.0 0.00 0.00 0.00 22 1006.0
20260508223042 70 213 0.9 0.0 0.00 0.00 0.00 22 1005.7
20260508221541 71 230 0.9 0.0 0.00 0.00 0.00 21 1006.0
20260508220040 71 141 0.9 0.0 0.00 0.00 0.00 16 1006.2
20260508214538 71 213 0.9 0.0 0.00 0.00 0.00 17 1006.3
20260508213037 71 223 0.9 0.0 0.00 0.00 0.00 14 1006.7
20260508211536 70 200 0.9 0.0 0.00 0.00 0.00 15 1006.6
20260508210035 71 138 0.9 0.0 0.00 0.00 0.00 12 1006.8
20260508204535 71 217 0.9 0.0 0.00 0.00 0.00 9 1006.9
20260508203037 72 195 0.0 0.0 0.00 0.00 0.00 11 1006.3
20260508201531 72 169 0.9 0.0 0.00 0.00 0.00 9 1006.9
20260508200030 71 236 0.9 0.0 0.00 0.00 0.00 9 1006.5
20260508194528 71 246 0.9 0.0 0.00 0.00 0.00 9 1006.8
20260508193027 71 202 0.0 0.0 0.00 0.00 0.00 9 1007.3
20260508191523 70 192 0.0 0.0 0.00 0.00 0.00 10 1007.5
20260508190035 70 202 0.0 0.0 0.00 0.00 0.00 11 1007.2
20260508184524 69 226 0.0 0.0 0.00 0.00 0.00 13 1007.2
20260508183020 68 339 0.0 0.0 0.00 0.00 0.00 12 1007.3
20260508181517 67 243 0.0 0.0 0.00 0.00 0.00 13 1007.9
20260508180015 66 209 0.0 0.0 0.00 0.00 0.00 13 1007.8
20260508174528 66 215 0.0 0.0 0.00 0.00 0.00 15 1007.6
20260508173011 65 44 0.0 0.0 0.00 0.00 0.00 21 1007.8
20260508171507 64 253 0.0 0.0 0.00 0.00 0.00 17 1008.0
20260508170002 64 253 0.0 0.0 0.00 0.00 0.00 17 1007.4